Location: アルンシュタイン
(50.0000°N, 10.0000°E)
Time: 09:40:45
(UTC+01:00)

Envisat - Pass Details

Date: 27 September 2023
Orbit: 762 x 764 km, 98.3° (Epoch: 07 December)

Event Time Altitude Azimuth Distance (km) Brightness Sun altitude
Rises 05:10:34 0° 14° (NNE) 3,245 6.8 -20.1°
Reaches altitude 10° 05:12:53 10° 15° (NNE) 2,314 6.0 -19.7°
Maximum altitude 05:18:00 86° 103° (ESE) 774 3.0 -19.0°
Enters shadow 05:22:21 14° 194° (SSW) 2,010 4.8 -18.3°
